Probability
0 0 0 0 0 0 0 0 0 6 3 3 16 26 42 55 68 68 74 84 90 94 94 94 94 94 94 87 84 81 81 84 84 77 74 65 65 55 55 58 52 48 48 39
0 0 0 0 0 0 0 0 0 6 10 16 26 32 55 65 74 87 77 84 90 94 94 94 94 94 90 87 87 87 77 81 87 81 77 65 58 58 58 52 55 55 45 39
0 0 0 0 0 0 3 3 3 13 19 29 35 39 48 58 65 84 84 90 94 94 94 94 94 87 87 90 87 87 81 77 81 77 68 61 52 55 55 48 52 52 42 39
0 0 0 0 3 3 3 10 19 32 35 35 42 61 65 71 68 84 84 94 90 90 90 94 90 87 90 87 87 87 77 77 74 68 61 58 52 48 48 45 48 45 42 35
0 0 0 3 3 3 6 19 16 23 26 29 39 58 68 74 81 77 87 90 90 90 87 84 84 90 90 87 87 81 77 74 65 52 55 52 42 42 42 42 45 42 39 39
0 0 0 0 3 3 6 13 16 32 35 39 42 45 65 84 81 77 87 90 87 84 81 81 87 90 90 84 81 81 77 74 61 48 48 45 42 35 35 42 45 45 42 26
0 0 3 6 6 3 6 32 35 39 42 48 68 81 81 81 81 87 90 87 84 81 81 84 87 87 87 84 74 74 71 68 55 52 45 42 35 35 35 35 32 35 32 19
0 0 3 19 6 23 52 61 55 55 58 68 77 77 77 77 77 81 81 84 84 84 81 81 77 81 77 74 74 71 68 61 58 55 42 32 35 35 39 39 35 39 32 23
10 19 39 52 61 61 58 65 61 65 71 71 71 74 74 74 77 74 77 74 74 77 77 77 77 77 77 71 71 65 65 61 58 48 42 39 35 32 32 29 26 26 26 16
42 39 45 52 52 55 52 58 55 55 65 65 65 65 61 65 65 65 61 61 61 71 74 71 74 74 71 71 71 61 61 55 48 45 35 39 39 26 26 23 26 26 19 13
42 52 45 42 45 39 45 45 45 48 55 52 58 58 58 52 55 48 52 58 55 58 65 65 65 71 65 65 61 55 52 42 42 39 35 32 32 26 23 23 16 19 16 16
35 39 52 39 35 42 45 45 48 48 45 45 48 52 48 45 45 48 48 58 65 48 45 45 45 52 55 61 58 52 48 39 32 26 29 29 26 19 13 13 10 3 6 6
23 26 29 32 42 42 42 42 42 45 45 42 42 45 48 45 39 39 42 45 45 45 45 39 39 42 42 48 45 48 42 32 26 16 19 23 23 23 23 10 0 0 0 0
23 16 26 35 35 35 39 39 39 39 35 32 35 39 39 42 45 45 42 45 39 35 32 32 26 29 29 45 45 39 32 23 23 26 23 23 16 13 13 13 16 13 0 0
16 23 23 26 29 29 26 29 32 29 32 32 32 35 42 45 42 45 42 35 26 29 29 29 26 26 26 23 23 16 16 16 16 19 19 16 16 13 13 13 13 10 6 0
13 16 23 26 23 16 16 19 19 23 26 23 26 29 23 29 39 35 32 29 26 23 23 19 23 23 16 16 19 19 13 10 6 6 6 10 13 13 13 13 10 10 6 3
10 13 16 13 13 13 13 13 13 10 16 19 19 19 19 19 19 29 26 16 13 16 16 19 19 23 16 16 6 6 10 3 3 3 6 6 6 10 13 13 10 10 10 3
10 10 6 10 13 13 6 3 3 13 16 13 13 16 13 13 10 10 16 13 13 13 13 16 16 16 16 16 19 10 6 3 3 3 6 6 6 10 10 10 10 10 10 0
10 6 6 6 3 3 3 6 6 10 10 13 10 10 6 6 19 16 10 16 13 13 23 16 6 13 19 13 6 10 6 6 3 6 6 3 3 3 3 3 6 10 6 6
3 3 3 3 6 6 6 3 3 3 3 0 0 10 3 6 13 10 19 19 19 13 16 13 13 16 16 6 6 6 3 3 3 6 3 3 3 3 3 3 3 6 6 6
0 0 0 0 0 0 6 3 0 0 0 0 3 3 3 3 6 13 19 10 26 19 13 6 13 10 10 6 3 3 3 3 3 3 6 6 3 3 3 6 6 10 6 6
0 0 0 3 3 3 10 6 6 0 0 0 0 0 3 10 13 13 19 23 3 3 10 10 10 3 3 3 3 3 3 0 0 0 3 3 6 6 6 6 6 6 6 6
0 0 0 0 3 3 6 3 0 3 3 0 0 3 3 3 0 3 3 3 3 3 6 10 6 3 3 3 3 3 3 0 0 0 0 3 3 10 6 6 6 6 3 3
3 0 0 3 0 0 3 3 0 0 0 3 0 0 0 0 0 0 3 3 3 3 3 3 3 0 0 3 3 3 3 0 0 0 6 6 6 3 3 3 3 3 3 3
3 3 3 3 3 6 6 6 3 0 0 0 0 0 0 0 0 0 3 3 0 3 3 0 0 0 3 3 3 3 0 0 0 0 0 3 3 3 3 3 3 3 3 3
3 6 6 6 13 13 10 3 3 6 3 0 0 0 0 0 0 0 6 3 3 0 0 3 0 0 3 3 3 3 0 0 0 0 0 3 3 0 3 3 3 3 3 3
0 6 6 10 10 3 3 3 3 3 0 0 0 0 0 0 0 0 0 0 0 0 0 0 3 3 3 3 3 3 3 3 0 0 0 3 3 3 3 3 3 3 0 0
Height
5879 5884 5888 5891 5893 5895 5898 5901 5904 5906 5905 5905 5904 5904 5904 5904 5904 5905 5904 5905 5904 5904 5904 5902 5901 5899 5898 5896 5895 5892 5891 5889 5888 5887 5885 5884 5882 5881 5880 5878 5876 5875 5873 5871
5871 5876 5880 5883 5887 5890 5893 5895 5898 5899 5899 5899 5899 5899 5899 5900 5901 5900 5901 5901 5901 5901 5901 5900 5898 5897 5895 5894 5892 5890 5888 5887 5886 5884 5883 5881 5880 5878 5877 5875 5873 5871 5870 5868
5863 5869 5872 5875 5880 5884 5887 5889 5891 5892 5892 5893 5893 5892 5894 5896 5897 5897 5897 5897 5898 5898 5897 5896 5895 5894 5893 5891 5890 5888 5887 5885 5883 5882 5880 5878 5876 5875 5873 5871 5869 5868 5866 5864
5856 5861 5864 5870 5874 5877 5879 5881 5882 5884 5885 5886 5887 5888 5889 5890 5891 5892 5893 5893 5892 5893 5893 5892 5891 5890 5889 5887 5886 5885 5884 5882 5880 5878 5876 5874 5872 5871 5869 5867 5865 5863 5861 5859
5848 5852 5856 5862 5865 5869 5871 5872 5875 5877 5878 5879 5880 5882 5883 5884 5885 5887 5887 5887 5888 5888 5887 5887 5887 5886 5885 5884 5883 5881 5880 5878 5876 5874 5872 5870 5868 5866 5863 5861 5860 5858 5856 5854
5840 5844 5848 5854 5857 5860 5863 5863 5866 5867 5869 5871 5873 5875 5876 5878 5879 5880 5881 5882 5882 5882 5881 5881 5882 5881 5880 5879 5878 5877 5875 5873 5871 5869 5867 5865 5863 5860 5858 5856 5854 5852 5850 5849
5831 5835 5838 5843 5846 5851 5854 5855 5857 5859 5861 5863 5865 5867 5869 5871 5872 5873 5874 5875 5875 5875 5876 5876 5876 5875 5875 5874 5873 5872 5870 5868 5866 5864 5862 5859 5857 5855 5853 5851 5849 5847 5845 5843
5824 5827 5832 5835 5837 5840 5842 5845 5848 5850 5853 5855 5857 5859 5861 5863 5865 5866 5867 5868 5868 5869 5869 5869 5869 5868 5868 5868 5867 5866 5864 5862 5860 5859 5857 5854 5852 5849 5847 5845 5843 5841 5839 5837
5816 5820 5823 5825 5828 5830 5833 5837 5839 5842 5844 5847 5849 5851 5853 5855 5857 5858 5859 5860 5861 5861 5861 5861 5861 5861 5861 5861 5860 5859 5857 5856 5854 5852 5850 5848 5846 5844 5841 5839 5837 5835 5833 5831
5806 5809 5812 5815 5818 5821 5825 5828 5831 5833 5835 5838 5840 5842 5845 5847 5848 5850 5851 5852 5853 5853 5853 5853 5853 5853 5852 5852 5851 5851 5850 5848 5847 5845 5843 5841 5839 5837 5835 5833 5830 5829 5827 5825
5795 5799 5803 5805 5808 5812 5815 5818 5822 5825 5827 5829 5831 5833 5836 5838 5839 5841 5842 5843 5844 5844 5844 5844 5844 5844 5844 5843 5842 5842 5841 5841 5839 5837 5836 5835 5833 5830 5828 5826 5824 5822 5821 5819
5785 5788 5792 5796 5799 5802 5805 5809 5812 5814 5817 5819 5822 5824 5826 5828 5830 5831 5833 5834 5835 5835 5836 5836 5836 5835 5835 5835 5834 5833 5833 5832 5831 5830 5828 5827 5825 5823 5821 5819 5817 5815 5813 5811
5776 5778 5782 5786 5790 5793 5797 5800 5802 5804 5807 5809 5812 5814 5816 5818 5820 5822 5823 5824 5825 5826 5826 5826 5827 5827 5826 5826 5825 5824 5824 5823 5822 5821 5820 5819 5817 5815 5814 5812 5809 5807 5805 5803
5767 5768 5771 5776 5781 5784 5787 5790 5792 5794 5797 5799 5801 5804 5806 5808 5810 5811 5813 5814 5815 5816 5817 5817 5817 5817 5817 5817 5816 5815 5814 5813 5812 5812 5811 5809 5808 5806 5804 5803 5801 5798 5796 5794
5759 5761 5764 5767 5771 5774 5777 5780 5782 5785 5787 5789 5792 5793 5795 5797 5799 5801 5802 5804 5805 5806 5807 5807 5807 5807 5807 5807 5806 5806 5805 5804 5803 5802 5801 5799 5798 5796 5795 5793 5791 5789 5787 5785
5751 5753 5755 5758 5762 5765 5768 5771 5773 5775 5777 5779 5782 5784 5785 5787 5789 5790 5792 5793 5794 5795 5796 5796 5797 5798 5797 5796 5796 5796 5795 5794 5793 5792 5791 5789 5788 5786 5785 5783 5781 5779 5777 5775
5742 5745 5747 5750 5753 5756 5759 5761 5764 5766 5767 5769 5772 5774 5776 5777 5779 5780 5782 5783 5784 5785 5786 5787 5788 5788 5787 5787 5786 5785 5785 5784 5783 5781 5780 5779 5777 5776 5774 5773 5771 5769 5767 5765
5734 5737 5739 5741 5744 5747 5750 5752 5754 5756 5758 5760 5762 5764 5766 5768 5769 5770 5772 5773 5774 5775 5776 5777 5778 5778 5777 5777 5776 5775 5775 5773 5772 5771 5770 5769 5767 5766 5764 5762 5760 5759 5757 5755
5728 5730 5732 5734 5736 5738 5740 5742 5744 5747 5749 5750 5753 5755 5756 5758 5759 5760 5762 5763 5764 5765 5766 5767 5767 5767 5767 5767 5766 5765 5764 5763 5762 5761 5760 5758 5757 5755 5753 5752 5750 5748 5746 5744
5721 5722 5724 5726 5728 5730 5731 5733 5735 5738 5740 5742 5743 5745 5747 5748 5750 5751 5752 5753 5754 5755 5756 5757 5757 5757 5757 5757 5756 5756 5755 5754 5752 5751 5750 5748 5746 5744 5743 5741 5740 5737 5735 5733
5714 5715 5717 5718 5720 5722 5724 5726 5728 5730 5732 5733 5735 5736 5738 5739 5741 5742 5743 5744 5745 5746 5746 5747 5747 5747 5747 5747 5746 5746 5745 5744 5743 5741 5740 5738 5736 5734 5732 5731 5729 5726 5724 5722
5707 5709 5710 5710 5712 5715 5717 5719 5720 5722 5724 5725 5727 5728 5729 5731 5732 5733 5734 5735 5736 5736 5737 5737 5737 5737 5737 5737 5737 5736 5735 5734 5733 5731 5729 5728 5726 5724 5722 5720 5718 5716 5713 5711
5702 5703 5704 5705 5707 5709 5710 5712 5713 5715 5716 5718 5719 5720 5721 5722 5724 5725 5726 5726 5727 5727 5728 5728 5728 5728 5728 5727 5727 5726 5725 5724 5722 5721 5719 5718 5716 5714 5712 5710 5707 5705 5703 5701
5697 5698 5699 5700 5701 5703 5704 5705 5707 5708 5709 5711 5712 5713 5714 5715 5716 5717 5717 5718 5718 5719 5719 5719 5719 5719 5719 5718 5717 5716 5715 5714 5713 5711 5709 5708 5706 5704 5702 5700 5698 5695 5693 5691
5693 5694 5695 5696 5697 5697 5698 5700 5701 5702 5703 5704 5705 5706 5707 5708 5709 5709 5710 5710 5711 5711 5711 5711 5711 5710 5710 5709 5708 5707 5706 5705 5703 5702 5700 5699 5697 5695 5693 5690 5688 5686 5684 5681
5691 5691 5692 5692 5693 5693 5694 5694 5695 5696 5697 5698 5699 5700 5701 5701 5702 5703 5703 5703 5703 5703 5703 5703 5703 5702 5701 5700 5700 5698 5697 5696 5695 5693 5691 5690 5688 5686 5684 5681 5679 5677 5675 5672
5688 5688 5689 5689 5689 5689 5690 5690 5691 5692 5692 5693 5694 5695 5695 5696 5696 5696 5696 5696 5696 5696 5696 5695 5695 5694 5693 5692 5692 5691 5689 5688 5686 5685 5683 5681 5679 5677 5675 5673 5671 5668 5666 5664
Wind_Speed
32 27 24 23 23 23 25 25 24 23 24 23 21 21 21 19 19 19 18 16 16 16 17 16 16 17 17 18 17 16 16 16 15 15 16 16 15 16 16 17 16 16 15 15
36 32 28 26 24 24 25 25 25 25 25 23 23 24 23 22 22 20 20 18 18 17 17 17 17 17 18 18 18 17 17 17 17 17 17 17 17 17 17 17 17 17 17 18
37 33 31 31 27 26 25 25 26 27 28 26 26 25 25 24 23 23 22 21 20 19 18 18 18 18 19 19 19 19 19 19 19 19 19 19 19 19 19 19 20 20 20 20
35 33 34 34 29 27 26 28 29 31 32 32 30 29 27 27 27 26 24 24 22 21 20 20 20 20 21 20 20 21 21 21 21 21 21 21 21 22 22 22 22 22 22 22
35 34 35 34 32 30 29 31 31 32 33 33 32 31 32 30 29 28 26 26 25 24 23 22 22 22 22 22 22 22 22 22 22 23 23 23 23 24 24 24 24 23 22 23
35 34 34 32 31 30 29 33 34 33 35 35 32 32 32 31 30 29 28 27 26 26 25 24 24 24 24 24 23 23 23 23 24 24 24 25 24 24 23 24 23 23 22 23
36 36 36 33 31 31 33 35 34 34 34 34 34 34 34 32 31 30 28 28 27 28 28 27 27 27 26 25 25 25 25 25 25 25 25 25 24 24 23 23 23 23 23 24
36 37 36 33 30 32 34 33 34 34 34 34 34 34 33 33 32 32 30 30 30 29 29 29 29 29 28 28 27 27 27 26 27 26 26 25 26 25 24 24 24 25 25 25
36 37 37 35 35 34 34 34 33 34 35 35 34 33 33 33 33 32 32 32 32 32 31 31 31 31 31 31 30 29 28 28 28 28 27 27 26 26 26 26 26 26 26 26
37 37 38 37 37 38 37 36 36 35 35 35 35 35 34 33 33 33 34 34 34 34 34 33 33 32 32 32 32 32 31 31 30 30 29 29 28 28 28 28 28 27 27 27
40 39 39 38 40 40 38 37 37 36 37 37 36 35 35 35 35 34 35 35 34 35 35 34 35 34 33 32 32 32 32 32 33 32 31 30 30 31 30 29 28 29 29 29
41 41 40 40 39 39 40 39 39 38 37 38 37 37 36 36 36 36 35 35 34 34 34 34 34 35 35 35 35 34 34 34 34 33 32 32 32 32 32 31 30 30 31 31
37 38 40 41 41 41 40 40 40 40 39 39 39 38 38 38 38 37 36 36 35 35 35 34 34 35 35 35 36 36 35 35 35 34 34 34 34 33 33 33 32 31 31 32
35 35 37 39 39 39 38 38 39 39 38 39 38 39 38 39 39 38 37 37 37 36 36 36 36 36 36 36 35 36 36 36 35 35 35 36 36 35 35 34 32 32 33 33
36 35 36 37 39 39 39 39 39 39 39 39 39 39 39 39 39 39 38 38 37 37 37 36 36 36 36 36 35 36 36 36 36 37 36 36 35 35 35 34 34 34 35 35
34 35 34 35 37 37 38 38 38 38 38 38 38 38 38 38 38 38 38 38 38 37 36 36 36 36 36 36 37 37 37 37 38 38 37 37 36 35 35 35 35 35 36 36
32 34 36 36 36 37 38 38 38 37 38 39 38 38 38 38 38 38 38 37 37 36 36 36 36 36 36 37 37 37 37 38 38 37 37 37 36 36 36 36 35 35 36 36
29 31 32 34 35 36 37 37 38 38 38 38 37 36 36 36 37 37 37 36 36 36 36 36 36 36 36 36 36 36 36 37 37 37 36 36 36 36 36 36 35 36 36 36
29 31 33 34 35 35 35 36 36 36 36 36 36 35 35 35 35 35 35 34 34 35 35 35 34 35 35 36 36 36 36 36 36 37 37 37 37 37 37 37 37 37 37 37
27 28 29 31 31 32 33 34 35 34 34 34 33 34 34 34 34 34 34 34 34 34 35 34 34 34 35 36 36 36 36 36 37 37 38 38 37 37 37 37 38 38 38 38
26 27 28 28 29 29 30 31 31 32 32 32 32 32 32 32 32 32 32 33 32 32 33 34 34 35 35 35 35 36 36 36 37 37 37 37 37 37 38 38 38 38 38 38
24 24 24 25 27 27 28 28 29 30 31 31 30 30 31 31 31 31 31 31 32 32 32 33 34 34 34 34 34 35 35 36 36 36 36 37 37 37 37 37 37 37 37 36
21 22 23 23 23 24 25 25 26 27 28 28 28 29 30 30 29 30 30 30 31 31 31 31 32 32 32 33 33 34 35 35 35 35 35 36 36 36 36 35 35 35 35 35
18 19 20 20 20 21 22 23 23 24 25 25 26 26 27 27 27 27 28 28 29 29 29 30 30 31 31 32 32 32 33 34 34 34 34 34 33 33 33 33 33 33 33 33
15 15 16 17 18 19 20 21 21 22 23 23 23 23 23 23 24 25 25 26 27 27 28 28 28 29 29 30 30 31 31 31 31 32 32 31 31 32 32 32 32 32 31 31
13 14 14 15 16 17 17 18 19 20 20 20 21 21 21 21 22 23 23 24 25 26 26 27 27 28 28 28 29 29 29 29 29 29 29 29 29 30 30 30 29 30 30 30
11 12 13 13 14 14 15 15 16 17 17 18 18 18 19 20 21 21 21 23 24 24 24 25 25 26 26 27 27 27 27 27 27 28 28 28 28 28 28 28 28 29 29 30
Wind_Direction
224 222 223 232 239 235 232 230 234 242 246 250 253 259 259 262 269 277 282 281 287 292 298 302 307 310 315 319 320 322 321 320 319 314 313 316 315 314 314 313 315 315 314 312
227 223 225 228 231 238 238 235 235 242 247 250 251 254 256 262 268 273 279 281 285 287 292 298 302 305 308 310 314 315 317 317 317 314 312 311 310 309 309 311 312 311 311 309
231 227 228 230 227 230 235 236 235 237 242 244 247 251 254 258 265 271 274 278 281 285 289 292 296 298 301 303 306 308 310 310 310 309 310 309 307 307 307 307 308 308 308 308
233 230 231 231 229 232 234 234 234 237 240 245 248 254 257 261 265 268 271 275 277 282 284 287 289 292 295 297 302 305 305 305 306 306 306 306 305 306 305 304 304 304 305 305
231 233 235 234 232 231 234 236 238 240 242 245 247 252 255 258 261 264 267 270 274 276 278 281 284 286 289 293 297 300 301 301 303 303 303 302 303 304 304 303 303 302 301 302
230 230 232 235 235 234 233 238 238 240 242 244 246 250 256 258 260 261 264 267 270 272 274 278 280 282 284 288 292 295 298 299 301 303 302 302 301 302 303 302 303 302 300 300
231 232 234 232 230 232 233 238 240 242 245 247 249 252 255 258 259 262 263 265 267 269 271 274 277 279 281 285 289 293 295 296 299 302 303 302 301 300 300 301 303 301 300 300
233 232 235 235 235 234 235 237 241 243 245 248 250 252 255 257 259 261 262 263 265 268 270 271 273 276 279 282 284 287 290 292 294 296 298 300 300 299 300 301 301 301 300 300
234 235 234 235 237 239 239 239 241 244 245 249 252 253 254 256 257 259 260 261 264 266 268 270 270 272 275 277 279 282 285 287 290 292 294 298 300 299 300 301 300 299 300 301
229 231 233 234 235 237 240 241 243 246 248 249 251 253 254 256 256 257 259 261 263 265 267 268 268 269 271 273 276 278 282 284 286 288 292 296 297 296 297 298 298 298 299 299
230 232 234 235 237 238 240 243 245 246 248 250 252 253 254 255 256 258 260 261 262 264 266 267 267 268 269 273 275 277 279 281 284 286 288 293 295 295 295 296 297 297 297 298
231 231 233 235 237 239 241 243 245 246 248 249 252 254 254 256 258 260 262 262 263 264 266 267 268 268 269 272 275 277 279 281 283 286 287 289 292 293 294 294 294 295 296 296
234 235 235 236 238 240 242 244 245 247 250 250 252 254 255 256 258 260 261 262 263 263 264 265 266 268 271 273 275 277 278 281 283 283 284 286 288 290 292 293 292 293 295 296
235 236 235 238 240 243 244 245 247 249 250 251 252 254 255 256 257 259 261 262 263 263 264 266 266 267 269 272 275 277 278 279 281 282 283 285 287 289 291 291 290 291 292 294
238 240 240 241 242 243 244 245 247 249 251 252 253 255 256 258 258 259 260 261 262 264 265 266 267 268 270 272 274 276 278 279 280 282 283 284 285 287 289 290 291 291 292 292
238 239 240 240 241 243 244 246 248 250 251 252 253 255 256 257 257 258 260 261 262 263 265 265 267 269 272 273 274 275 277 279 281 281 282 283 283 285 288 289 290 291 292 293
243 242 244 244 244 245 246 247 249 250 251 252 253 254 256 257 259 260 261 262 263 264 264 265 267 268 270 273 274 275 277 279 280 282 282 282 283 285 287 288 289 291 292 293
246 247 247 246 247 246 246 248 249 250 252 253 255 257 258 259 261 262 262 262 262 263 264 266 267 268 271 274 276 276 276 278 279 281 283 282 284 286 286 287 289 291 292 293
247 248 249 248 249 251 252 252 251 250 253 255 255 257 259 260 261 261 260 261 262 262 263 265 267 269 270 273 275 277 279 280 280 282 282 283 284 286 287 288 289 291 292 292
248 249 249 250 251 251 252 252 253 253 254 255 257 259 259 260 260 260 261 262 262 262 264 265 268 269 272 274 275 276 278 280 282 282 283 285 285 285 287 287 289 290 290 291
251 249 248 249 248 249 250 251 250 252 254 256 259 259 258 259 260 260 261 261 261 263 264 266 269 270 272 274 276 277 278 279 280 282 283 284 285 286 287 287 288 289 290 290
252 248 247 249 248 249 250 252 252 253 254 256 257 257 259 260 260 261 262 263 264 265 266 267 269 271 273 274 276 277 278 279 281 282 283 283 284 286 287 288 288 289 290 290
252 250 250 251 249 250 251 252 253 254 255 256 257 258 259 260 260 261 262 263 264 266 267 268 271 272 273 275 277 279 279 281 282 284 285 285 286 287 288 288 289 290 290 292
253 253 252 252 253 254 253 254 254 255 256 257 258 259 259 260 260 261 263 264 266 267 269 270 272 274 275 277 279 280 281 281 282 284 285 286 286 288 288 289 289 290 291 292
256 257 257 256 256 257 257 255 256 257 257 258 259 260 260 261 263 264 265 267 269 270 272 274 276 277 278 279 280 281 281 281 282 284 286 286 287 289 289 290 290 290 291 291
254 255 258 258 256 257 258 258 258 257 258 259 259 259 261 263 265 266 268 270 272 274 276 276 276 277 278 279 280 281 281 283 284 286 287 288 289 290 291 292 293 294 293 292
255 255 257 257 259 260 260 260 259 259 259 261 261 261 261 263 265 268 271 273 274 275 276 276 277 278 279 280 280 282 283 284 286 287 288 289 290 291 293 294 294 294 295 295